Regional Weather Roundup
Issued by NWS Grand Forks, ND

Home | Current Version | Previous Version | Text Only | Print | Product List | Glossary Off
Versions: 1 2 3 4 5 6 7 8 9 10 11 12 13 14 15 16 17 18 19 20 21 22 23 24 25 26 27 28 29 30 31 32 33 34 35 36 37 38 39 40 41 42 43 44 45 46 47 48 49 50

000
ASUS43 KFGF 191110
RWRFGF
PRAIRIE TO PINES  WEATHER ROUNDUP
NATIONAL WEATHER SERVICE EASTERN NORTH DAKOTA/GRAND FORKS ND
600 AM CDT SUN APR 19 2015

 **SATELLITE DATA USED TO AUGMENT SKY COVER AT AUTOMATED STATIONS**
 *****  WEATHER ACROSS EASTERN NORTH DAKOTA  *****

CITY           SKY/WX    TMP DP  RH WIND       PRES   REMARKS
GRAND FORKS    LGT RAIN  46  45  96 NW5       29.73F
GRAND FRKS AFB LGT RAIN  47  45  94 N8        29.73S
GRAND FRKS NWS   N/A     46 N/A N/A N2          N/A
DEVILS LAKE    CLOUDY    43  37  81 NW13      29.79S
FARGO          LGT RAIN  50  48  93 N7        29.71F FOG
WAHPETON ARPT  CLOUDY    46  43  87 N8        29.69S
$$

 ***** WEATHER ACROSS CENTRAL AND WESTERN NORTH DAKOTA  *****

CITY           SKY/WX    TMP DP  RH WIND       PRES   REMARKS
BISMARCK       MOCLDY    42  34  73 NW8       29.93R
MINOT          CLOUDY    40  30  67 W14       29.87F
JAMESTOWN      LGT RAIN  44  42  93 NW23G30   29.78S
MINOT AFB      CLOUDY    39  36  88 NW17      29.86F
GARRISON         N/A     39  32  76 NW15      29.90S
WILLISTON      CLOUDY    41  31  67 NW20      29.98S
DICKINSON      CLEAR     33  26  75 W15       29.96S WCI  23
HETTINGER      CLEAR     33  26  75 NW14      30.01R WCI  23
$$

 *****  OTHER AIRPORT OBSERVATIONS IN OUR AREA  *****

CITY           SKY/WX    TMP DP  RH WIND       PRES   REMARKS
WALHALLA       LGT RAIN  45  45 100 W10G18    29.76S
GRAFTON AIRPOR DRIZZLE   46  46 100 NW9       29.74S
VALLEY CITY AR LGT RAIN  45  45 100 NW22      29.76R
CANDO          CLOUDY    41  39  93 NW8       29.80F
CAVALIER APRT  LGT RAIN  46  45  93 NW9       29.75S
GWINNER        CLOUDY    48  48 100 N14       29.75S
SHEYENNE NWR     N/A     48  47  98 N9        29.95S
ROLLA          CLOUDY    41  37  87 NW18      29.80S
 ***** THE ABOVE OBSERVATIONS ARE NON NWS ARE NOT QUALITY
       CONTROLLED AND MAY MIS-REPORT RAIN FOR SNOW...
$$

  *****  WEATHER ACROSS NORTHERN MINNESOTA  *****

CITY           SKY/WX    TMP DP  RH WIND       PRES   REMARKS
FLAG ISLAND    RAIN      39  32  75 SE8       29.76F
WARROAD        DRIZZLE   43  39  87 CALM      29.76F
ROSEAU         LGT RAIN  45  39  81 CALM      29.75F
HALLOCK        LGT RAIN  46  45  93 N7        29.73F
THF RVR FALLS  CLOUDY    46  43  87 CALM      29.75S
BAUDETTE       LGT RAIN  40  34  79 SE12      29.77F
WASKISH        RAIN      41  37  87 CALM      29.76F
CROOKSTON      LGT RAIN  48  46  93 CALM      29.74F
STEPHEN NDAWN    N/A     46  46 100 N3          N/A
GREENBUSH NDAW   N/A     45  45 100 E3          N/A
$$
  *****  WEATHER ACROSS CENTRAL AND WEST MINNESOTA  *****

CITY           SKY/WX    TMP DP  RH WIND       PRES   REMARKS
FOSSTON        RAIN      43  37  81 CALM      29.73F
BEMIDJI        LGT RAIN  39  38  97 E6        29.73F
PARK RAPIDS    LGT RAIN  43  40  89 E9        29.70F FOG
ELBOW LAKE     FOG       48  48 100 W10       29.65S VSB 1/2
WADENA         DRIZZLE   43  43 100 E10       29.66F
DETROIT LAKES  DRIZZLE   45  43  93 E3        29.70F
MOORHEAD       LGT RAIN  48  46  93 N6        29.71F
FERGUS FALLS   CLOUDY    45  45 100 N7        29.69S FOG
MORRIS MN      RAIN      48  48 100 W10       29.66S VSB 3/4
STAPLES        DRIZZLE   43  43 100 E9        29.68F
$$
  *****  WEATHER ELSEWHERE ACROSS MINNESOTA  *****

CITY           SKY/WX    TMP DP  RH WIND       PRES   REMARKS
DULUTH         LGT RAIN  38  33  82 E15G26    29.79F
INTRNTL FALLS  LGT RAIN  39  36  89 SE5       29.80F
ELY            HVY RAIN  36  36 100 NE5       29.83F
CLOQUET        LGT RAIN  36  34  93 E9G16     29.78F
WHEATON        CLOUDY    45  45 100 NW12      29.70F
BRAINERD       LGT RAIN  41  40  96 SE8       29.72F
HIBBING        RAIN      38  35  89 E7        29.80F FOG
ALEXANDRIA     LGT RAIN  49  48  97 SE9       29.66F FOG
SAINT CLOUD    CLOUDY    47  44  90 SE12      29.71F
MINNEAPOLIS    LGT RAIN  48  42  80 SE13      29.75F
$$

  *****  WEATHER ACROSS SOUTH DAKOTA  *****

CITY           SKY/WX    TMP DP  RH WIND       PRES   REMARKS
SIOUX FALLS    CLOUDY    54  51  90 W12       29.72S
BROOKINGS      CLOUDY    54  50  87 W12       29.71S
WATERTOWN      CLOUDY    49  46  90 NW18      29.71R
HURON          CLOUDY    48  47  96 NW23G30   29.78R
SISSETON         N/A     49  48  97 N22G28    29.69F
ABERDEEN       LGT RAIN  49  45  86 NW24G31   29.79R
MITCHELL       CLOUDY    50  47  89 NW23      29.79R
PIERRE         CLOUDY    44  39  82 NW16      29.92R
MOBRIDGE       MOCLDY    43  35  73 NW18G30   29.89R
RAPID CITY     CLEAR     37  27  67 NW15      30.06R
$$

  *****  SOME WEATHER IN NEARBY STATES *****

CITY           SKY/WX    TMP DP  RH WIND       PRES   REMARKS
GLASGOW MT     CLEAR     33  24  69 W12       30.13S WCI  24
GREAT FALLS MT PTCLDY    29  27  92 SW7       30.26S WCI  22
CHEYENNE WY    PTCLDY    32  25  75 N23G38    30.09R WCI  19
SCOTTSBLUFF NE MOCLDY    40  32  73 NW17      30.09R
OMAHA NE       FOG       56  56 100 CALM      29.73F VSB 1/4
DES MOINES IA  LGT RAIN  59  56  89 E5        29.75F
DAVENPORT IA   MOCLDY    48  38  68 NE6       29.80F
CHICAGO IL     MOCLDY    55  31  39 E10       29.87F
EAU CLAIRE WI  CLOUDY    46  33  60 VRB6      29.83R
LA CROSSE WI   CLOUDY    51  34  52 SW7       29.83R
$$

  *****  SOME NATIONAL WEATHER *****

CITY           SKY/WX    TMP DP  RH WIND       PRES   REMARKS
LA GUARDIA NY  MOCLDY    51  31  46 NE6       30.21R
RALEIGH NC     CLOUDY    65  62  90 E3        30.01R
ATLANTA GA     CLOUDY    67  64  90 SE7       29.85S FOG
NEW ORLEANS LA MOCLDY    71  69  93 W9        29.78S
OKLAHOMA CITY  PTCLDY    53  49  86 CALM      29.74S
ALBUQUERQUE NM PTCLDY    48  31  51 NW15      30.00S
SALT LAKE CITY CLEAR     46  34  62 SE5       30.05R
LOS ANGELES CA PTCLDY    57  54  89 CALM      29.95S
BOISE ID       PTCLDY    45  24  43 S9        30.12R
SEATTLE WA     CLEAR     49  39  68 N3        30.23S
$$

*** WEATHER ACROSS MANITOBA...SASKATCHEWAN AND ONTARIO ***
                ***ONTARIO***

CITY           SKY/WX    TMP DP  RH WIND       PRES   REMARKS
GERALDTON      MOCLDY    32  23  69 E7        30.09F
THUNDER BAY    MOCLDY    37  30  75 E14       29.98F
SIOUX LOOKOUT  CLOUDY    39  21  48 SE8       29.83F
TORONTO        MOCLDY    39  28  65 E13G21    30.25R
BIG TROUT LK   CLOUDY    37  27  65 SE9G17    30.01F
PICKLE LAKE    MOCLDY    36  25  64 SE15G23   29.92
DRYDEN         LGT RAIN  39  25  56 S14       29.81F
KENORA         LGT RAIN  41  27  56 S10       29.78S
$$
                *** MANITOBA***

CITY           SKY/WX    TMP DP  RH WIND       PRES   REMARKS
BRANDON        CLOUDY    41  37  87 NW15      29.79S
DAUPHIN        CLOUDY    41  37  87 N8        29.83S
ISLAND LAKE    LGT RAIN  37  34  87 E2        29.83S
PILOT MOUND      N/A     41  39  93 NW13        N/A
THE PAS        CLOUDY    36  32  87 N17G24    29.93R
THOMPSON       LGT SNOW  25  23  93 NE21G29   29.98R WCI  10
WINNIPEG       LGT RAIN  45  43  93 W10       29.74S
CHURCHILL      PTCLDY    14  12  92 NE8       30.32S WCI   3
GILLAM         LGT SNOW  25  23  93 NE15G24   30.05R VSB 3/4 WCI  12
$$
                ***SASKATCHEWAN***

CITY           SKY/WX    TMP DP  RH WIND       PRES   REMARKS
ESTEVAN        MOCLDY    39  34  81 NW15G22   29.93S
KINDERSLEY     PTCLDY    27  25  93 NW8       30.21R WCI  18
LLOYDMINSTER   CLEAR     30  27  86 W8        30.21R WCI  23
PRINCE ALBERT  LGT RAIN  34  32  93 NW13      30.11S WCI  25
REGINA         CLOUDY    37  34  87 NW21      30.00R
YORKTON        CLOUDY    39  37  93 NW13      29.90S
N. BATTLEFORD  CLEAR     30  28  93 NW8       30.20R WCI  23
LA RONGE       CLOUDY    32  28  86 N15G22    30.17R WCI  22
SASKATOON      PTCLDY    34  30  86 NW10G17   30.14R
SWIFT CURRENT  MOCLDY    32  30  93 NW13      30.15R WCI  22
$$
NOTE: THESE ARE AUTOMATED STATIONS WITH LIMITED QUALITY CONTROL
      "FAIR" INDICATES FEW OR NO CLOUDS BELOW 12,000 FEET WITH NO
      SIGNIFICANT WEATHER AND/OR OBSTRUCTIONS TO VISIBILITY.
      SKY/WX - SKY CONDITION AND SIGNIFICANT WEATHER.
      TMP - AIR TEMPERATURE.    DP   - DEWPOINT TEMPERATURE.
      RH  - RELATIVE HUMIDITY.  PRES - PRESSURE.
      HX  - HEAT INDEX.         WCI  - WIND CHILL INDEX.
$


USA.gov is the U.S. government's official web portal to all federal, state and local government web resources and services.